Indianapolis, IN

12:41 AM EST on February 28, 2017 (GMT -0500)
Indianapolis International

Weather History for KIND - June, 2013

Change the Weather History Date:

Friday, June 7, 2013

  Actual Average Record
Temperature  
Mean Temperature 68 °F 70 °F  
Max Temperature 74 °F 80 °F 98 °F (1933)
Min Temperature 61 °F 60 °F 41 °F (1894)
Degree Days  
Heating Degree Days 0 1  
Month to date heating degree days 9 9  
Since 1 June heating degree days 9 9  
Since 1 July heating degree days 5405 5371  
Cooling Degree Days 3 6  
Month to date cooling degree days 18 36  
Year to date cooling degree days 147 120  
Since 1 June cooling degree days 18 36  
Growing Degree Days 17 (Base 50)    
Moisture  
Dew Point 56 °F    
Average Humidity 69    
Maximum Humidity 84    
Minimum Humidity 53    
Precipitation  
Precipitation 0.00 in 0.14 in 3.80 in (1963)
Month to date precipitation 0.76 1.01  
Year to date precipitation 22.59 18.41  
Snow  
Snow 0.00 in 0.00 in 0.00 in ()
Month to date snowfall 0.0 0.0  
Since 1 June snowfall 0.0 0.0  
Since 1 July snowfall 34.5 25.9  
Snow Depth 0.00 in    
Sea Level Pressure  
Sea Level Pressure 29.83 in    
Wind  
Wind Speed 7 mph (NNE)    
Max Wind Speed 15 mph    
Max Gust Speed 17 mph    
Visibility 8 miles    
Events      
T = Trace of Precipitation, MM = Missing Value Source: NWS Daily Summary

Daily Weather History Graph

Daily Weather History Graph

Search for Another Location

Airport or City:

Trip Planner

Search our weather history database for the weather conditions in past years. The results will help you decide how hot, cold, wet, or windy it might be!

Date:

Astronomy

Jun. 07, 2013 Rise Set
Actual Time 6:17 AM EDT 9:11 PM EDT
Civil Twilight 5:45 AM EDT 9:43 PM EDT
Nautical Twilight 5:04 AM EDT 10:24 PM EDT
Astronomical Twilight 4:17 AM EDT 11:11 PM EDT
Moon 5:39 AM EDT (6/7) 8:24 PM EDT (6/7)
Length of Visible Light 15h 58m
Length of Day
14h 53m
Waning Crescent, 1% of the Moon is Illuminated
Jun 7
Waning Crescent
Jun 8
New
Jun 16
First Quarter
Jun 23
Full
Jun 30
Last Quarter

Hourly Weather History & Observations

Time (EDT) Temp. Dew Point Humidity Pressure Visibility Wind Dir Wind Speed Gust Speed Precip Events Conditions
12:54 AM 68.0 °F 59.0 °F 73% 29.80 in 10.0 mi East 8.1 mph - N/A   Mostly Cloudy
1:54 AM 66.0 °F 61.0 °F 84% 29.81 in 7.0 mi ESE 4.6 mph - N/A   Overcast
2:54 AM 66.9 °F 61.0 °F 81% 29.80 in 5.0 mi East 5.8 mph - N/A   Haze
3:54 AM 64.9 °F 59.0 °F 81% 29.81 in 7.0 mi ENE 4.6 mph - N/A   Overcast
4:54 AM 64.0 °F 57.0 °F 78% 29.80 in 7.0 mi NE 5.8 mph - N/A   Overcast
5:54 AM 63.0 °F 55.0 °F 75% 29.81 in 8.0 mi NE 5.8 mph - N/A   Overcast
6:54 AM 62.1 °F 54.0 °F 75% 29.82 in 6.0 mi NNE 6.9 mph - N/A   Haze
7:54 AM 62.1 °F 55.0 °F 78% 29.82 in 6.0 mi NE 6.9 mph - N/A   Haze
8:54 AM 63.0 °F 55.0 °F 75% 29.83 in 6.0 mi ENE 8.1 mph - N/A   Haze
9:54 AM 66.0 °F 55.0 °F 68% 29.84 in 7.0 mi NE 6.9 mph - N/A   Mostly Cloudy
10:54 AM 68.0 °F 55.0 °F 63% 29.84 in 8.0 mi Variable 5.8 mph - N/A   Overcast
11:54 AM 70.0 °F 55.9 °F 61% 29.84 in 9.0 mi North 8.1 mph - N/A   Mostly Cloudy
12:54 PM 73.0 °F 55.9 °F 55% 29.84 in 10.0 mi North 8.1 mph - N/A   Mostly Cloudy
1:54 PM 73.0 °F 55.9 °F 55% 29.83 in 10.0 mi North 5.8 mph - N/A   Mostly Cloudy
2:54 PM 73.0 °F 57.0 °F 57% 29.82 in 10.0 mi North 6.9 mph - N/A   Overcast
3:54 PM 72.0 °F 57.0 °F 59% 29.82 in 8.0 mi NNW 13.8 mph - N/A   Mostly Cloudy
4:54 PM 73.0 °F 55.9 °F 55% 29.82 in 10.0 mi North 10.4 mph - N/A   Overcast
5:54 PM 70.0 °F 55.9 °F 61% 29.82 in 10.0 mi North 11.5 mph - N/A   Overcast
6:54 PM 70.0 °F 55.0 °F 59% 29.83 in 10.0 mi North 8.1 mph - N/A   Overcast
7:54 PM 70.0 °F 55.0 °F 59% 29.84 in 9.0 mi North 6.9 mph - N/A   Overcast
8:54 PM 69.1 °F 55.0 °F 61% 29.84 in 9.0 mi North 6.9 mph - N/A   Overcast
9:54 PM 68.0 °F 55.9 °F 65% 29.85 in 10.0 mi NNW 4.6 mph - N/A   Overcast
10:54 PM 66.9 °F 55.9 °F 68% 29.87 in 8.0 mi NNW 4.6 mph - N/A   Overcast
11:54 PM 66.0 °F 57.0 °F 73% 29.87 in 9.0 mi NW 4.6 mph - N/A   Overcast